P/2020 O3 ( PanSTARRS )

Japanese version
Home page
Updated on September 6, 2020

---------------------------------------------------------------------

* Profile

Discovery Date July 28, 2020
Magnitude 21.0 mag
Discoverer Pan-STARRS 1 telescope (Haleakala)

* Orbital Elements

Epoch 2021 Jan. 26.0 TT = JDT 2459240.5
T 2021 Jan. 29.75568 TT                                 Rudenko
q   4.1661389            (2000.0)            P               Q
n   0.09806370     Peri.   81.49098     +0.96868634     +0.20042740
a   4.6572606      Node   266.85349     -0.24255499     +0.89000589
e   0.1054529      Incl.    8.43961     +0.05304582     +0.40953434
P  10.1
From 36 observations 2020 July 20-Aug. 16, mean residual 0".4.

* Magnitudes Graph

        m1 = 12.0 + 5 log d + 10.0 log r

---------------------------------------------------------------------

The orbital elements are published on M.P.E.C. 2020-R04.
The magnitudes graphs are made with Comet for Windows.

---------------------------------------------------------------------

Copyright(C) Seiichi Yoshida (comet@aerith.net). All rights reserved.